EQUISAT

Last updated on Sun Dec 27 2020 06:19:09 GMT+0000 (Coordinated Universal Time)

1 43552U 98067PA 20361.21801847 .10316869 12478-4 50011-3 0 9992 2 43552 51.6122 8.3673 0000676 209.2273 150.8717 16.43170683140619

Satellite not in orbit